StationID,Date,MaxTemp,MinTemp,Precipitation,Snowfall,SnowDepth
"US1AKAB0006","2007-05-09",,,0.00,0.00,
"US1AKAB0006","2007-05-10",,,8.00,0.00,
"US1AKAB0006","2007-05-11",,,0.00,0.00,
"US1AKAB0006","2007-05-12",,,0.00,0.00,
"US1AKAB0006","2007-05-13",,,0.00,0.00,
"US1AKAB0006","2007-05-14",,,0.00,0.00,
"US1AKAB0006","2007-05-15",,,0.00,0.00,
"US1AKAB0006","2007-05-16",,,0.00,0.00,
"US1AKAB0006","2007-05-17",,,0.00,0.00,
"US1AKAB0006","2007-05-18",,,0.00,0.00,
"US1AKAB0006","2007-05-19",,,0.00,0.00,
"US1AKAB0006","2007-05-20",,,0.00,0.00,
"US1AKAB0006","2007-05-21",,,0.00,0.00,
"US1AKAB0006","2007-05-22",,,0.00,0.00,
"US1AKAB0006","2007-05-23",,,0.00,0.00,
"US1AKAB0006","2007-05-24",,,38.00,0.00,
"US1AKAB0006","2007-05-25",,,3.00,0.00,
"US1AKAB0006","2007-05-26",,,0.00,0.00,
"US1AKAB0006","2007-05-27",,,0.00,0.00,
"US1AKAB0006","2007-05-28",,,0.00,0.00,0.00
"US1AKAB0006","2007-05-29",,,0.00,0.00,0.00
"US1AKAB0006","2007-05-30",,,5.00,0.00,0.00
"US1AKAB0006","2007-05-31",,,3.00,0.00,0.00
"US1AKAB0006","2007-06-01",,,0.00,0.00,0.00
"US1AKAB0006","2007-06-28",,,0.00,0.00,0.00
"US1AKAB0006","2007-06-29",,,0.00,0.00,0.00
"US1AKAB0006","2007-06-30",,,0.00,0.00,0.00
"US1AKAB0006","2007-07-01",,,0.00,0.00,
"US1AKAB0006","2007-07-02",,,38.00,0.00,0.00
"US1AKAB0006","2007-07-03",,,0.00,0.00,0.00
"US1AKAB0006","2007-07-04",,,8.00,0.00,0.00
"US1AKAB0006","2007-07-05",,,13.00,0.00,0.00
"US1AKAB0006","2007-07-06",,,13.00,0.00,0.00
"US1AKAB0006","2007-07-07",,,0.00,0.00,0.00
"US1AKAB0006","2007-07-08",,,8.00,0.00,0.00
"US1AKAB0006","2007-07-09",,,3.00,0.00,0.00
"US1AKAB0006","2007-07-10",,,20.00,0.00,0.00
"US1AKAB0006","2007-07-14",,,,,0.00
"US1AKAB0006","2007-07-15",,,15.00,0.00,0.00
"US1AKAB0006","2007-07-16",,,0.00,0.00,0.00
"US1AKAB0006","2007-07-17",,,0.00,0.00,0.00
"US1AKAB0006","2007-07-18",,,0.00,0.00,0.00
"US1AKAB0006","2007-07-19",,,0.00,0.00,0.00
"US1AKAB0006","2007-07-20",,,0.00,0.00,0.00
"US1AKAB0006","2007-07-21",,,0.00,0.00,0.00
"US1AKAB0006","2007-07-22",,,0.00,0.00,0.00
"US1AKAB0006","2007-07-25",,,,,0.00
"US1AKAB0006","2007-07-26",,,0.00,0.00,0.00
"US1AKAB0006","2007-07-27",,,0.00,0.00,0.00
"US1AKAB0006","2007-07-28",,,0.00,0.00,0.00
"US1AKAB0006","2007-07-29",,,0.00,0.00,0.00
"US1AKAB0006","2007-07-30",,,56.00,0.00,0.00
"US1AKAB0006","2007-07-31",,,13.00,0.00,0.00
"US1AKAB0006","2007-08-01",,,0.00,0.00,0.00
"US1AKAB0006","2007-08-10",,,,,0.00
"US1AKAB0006","2007-08-11",,,0.00,0.00,0.00
"US1AKAB0006","2007-08-12",,,0.00,0.00,
"US1AKAB0006","2007-08-13",,,0.00,0.00,0.00
"US1AKAB0006","2007-08-14",,,0.00,0.00,0.00
"US1AKAB0006","2007-08-15",,,130.00,0.00,0.00
"US1AKAB0006","2007-08-16",,,104.00,0.00,0.00
"US1AKAB0006","2007-08-17",,,0.00,0.00,0.00
"US1AKAB0006","2007-08-18",,,28.00,0.00,0.00
"US1AKAB0006","2007-08-19",,,5.00,0.00,0.00
"US1AKAB0006","2007-08-20",,,18.00,0.00,0.00
"US1AKAB0006","2007-08-21",,,61.00,0.00,0.00
"US1AKAB0006","2007-08-22",,,3.00,0.00,0.00
"US1AKAB0006","2007-08-23",,,23.00,0.00,0.00
"US1AKAB0006","2007-08-24",,,10.00,0.00,
"US1AKAB0006","2007-08-25",,,0.00,0.00,
"US1AKAB0006","2007-08-26",,,0.00,0.00,
"US1AKAB0006","2007-08-27",,,0.00,0.00,0.00
"US1AKAB0006","2007-08-28",,,0.00,0.00,
"US1AKAB0006","2007-08-29",,,0.00,0.00,
"US1AKAB0006","2007-08-30",,,0.00,0.00,0.00
"US1AKAB0006","2007-08-31",,,0.00,0.00,
"US1AKAB0006","2007-09-01",,,0.00,0.00,0.00
"US1AKAB0006","2007-09-02",,,0.00,0.00,0.00
"US1AKAB0006","2007-09-03",,,0.00,0.00,0.00
"US1AKAB0006","2007-09-04",,,0.00,0.00,0.00
"US1AKAB0006","2007-09-05",,,0.00,0.00,0.00
"US1AKAB0006","2007-09-06",,,5.00,0.00,0.00
"US1AKAB0006","2007-09-07",,,0.00,0.00,0.00
"US1AKAB0006","2007-09-08",,,94.00,0.00,0.00
"US1AKAB0006","2007-09-09",,,170.00,0.00,0.00
"US1AKAB0006","2007-09-10",,,28.00,0.00,0.00
"US1AKAB0006","2007-09-11",,,0.00,0.00,0.00
"US1AKAB0006","2007-09-12",,,28.00,0.00,0.00
"US1AKAB0006","2007-09-13",,,81.00,0.00,0.00
"US1AKAB0006","2007-09-14",,,20.00,0.00,0.00
"US1AKAB0006","2007-09-15",,,0.00,0.00,0.00
"US1AKAB0006","2007-09-16",,,0.00,0.00,0.00
"US1AKAB0006","2007-09-17",,,0.00,0.00,0.00
"US1AKAB0006","2007-09-18",,,0.00,0.00,0.00
"US1AKAB0006","2007-09-19",,,224.00,0.00,0.00
"US1AKAB0006","2007-09-20",,,74.00,0.00,0.00
"US1AKAB0006","2007-09-21",,,178.00,0.00,0.00
"US1AKAB0006","2007-09-22",,,0.00,0.00,0.00
"US1AKAB0006","2007-09-23",,,0.00,0.00,0.00
"US1AKAB0006","2007-09-24",,,10.00,0.00,0.00
"US1AKAB0006","2007-09-25",,,152.00,0.00,0.00
"US1AKAB0006","2007-09-26",,,61.00,0.00,0.00
"US1AKAB0006","2007-09-27",,,3.00,0.00,0.00
"US1AKAB0006","2007-09-28",,,0.00,0.00,0.00
"US1AKAB0006","2007-09-29",,,0.00,0.00,0.00
"US1AKAB0006","2007-09-30",,,53.00,0.00,0.00
"US1AKAB0006","2007-10-01",,,91.00,0.00,0.00
"US1AKAB0006","2007-10-02",,,66.00,0.00,0.00
"US1AKAB0006","2007-10-03",,,0.00,0.00,0.00
"US1AKAB0006","2007-10-04",,,0.00,0.00,0.00
"US1AKAB0006","2007-10-05",,,5.00,0.00,0.00
"US1AKAB0006","2007-10-06",,,13.00,0.00,0.00
"US1AKAB0006","2007-10-07",,,3.00,0.00,0.00
"US1AKAB0006","2007-10-08",,,0.00,0.00,0.00
"US1AKAB0006","2007-10-09",,,0.00,0.00,0.00
"US1AKAB0006","2007-10-10",,,0.00,0.00,0.00
"US1AKAB0006","2007-10-11",,,0.00,0.00,0.00
"US1AKAB0006","2007-10-22",,,0.00,0.00,0.00
"US1AKAB0006","2007-10-23",,,8.00,10.00,0.00
"US1AKAB0006","2007-10-24",,,3.00,3.00,0.00
"US1AKAB0006","2007-10-25",,,71.00,25.00,25.00
"US1AKAB0006","2007-10-26",,,0.00,0.00,25.00
"US1AKAB0006","2007-10-27",,,20.00,0.00,0.00
"US1AKAB0006","2007-10-28",,,0.00,0.00,0.00
"US1AKAB0006","2007-10-29",,,0.00,0.00,0.00
"US1AKAB0006","2007-10-30",,,0.00,0.00,0.00
"US1AKAB0006","2007-10-31",,,38.00,0.00,0.00
"US1AKAB0006","2007-11-01",,,8.00,0.00,0.00
"US1AKAB0006","2007-11-02",,,23.00,0.00,0.00
"US1AKAB0006","2007-11-03",,,18.00,0.00,0.00
"US1AKAB0006","2007-11-04",,,0.00,0.00,0.00
"US1AKAB0006","2007-11-05",,,0.00,0.00,0.00
"US1AKAB0006","2007-11-06",,,0.00,0.00,0.00
"US1AKAB0006","2007-11-07",,,0.00,0.00,0.00
"US1AKAB0006","2007-11-08",,,3.00,0.00,0.00
"US1AKAB0006","2007-11-09",,,0.00,0.00,0.00
"US1AKAB0006","2007-11-10",,,0.00,0.00,0.00
"US1AKAB0006","2007-11-11",,,41.00,25.00,25.00
"US1AKAB0006","2007-11-12",,,79.00,127.00,152.00
"US1AKAB0006","2007-11-13",,,0.00,0.00,127.00
"US1AKAB0006","2007-11-14",,,20.00,36.00,152.00
"US1AKAB0006","2007-11-15",,,0.00,0.00,127.00
"US1AKAB0006","2007-11-16",,,0.00,0.00,127.00
"US1AKAB0006","2007-11-17",,,0.00,0.00,127.00
"US1AKAB0006","2007-11-18",,,20.00,25.00,152.00
"US1AKAB0006","2007-11-19",,,48.00,89.00,229.00
"US1AKAB0006","2007-11-20",,,0.00,0.00,216.00
"US1AKAB0006","2007-11-26",,,,,0.00
"US1AKAB0006","2007-11-27",,,0.00,0.00,0.00
"US1AKAB0006","2007-11-28",,,0.00,0.00,0.00
"US1AKAB0006","2007-11-29",,,0.00,0.00,0.00
"US1AKAB0006","2007-11-30",,,0.00,0.00,0.00
"US1AKAB0006","2007-12-01",,,0.00,0.00,0.00
"US1AKAB0006","2007-12-02",,,0.00,0.00,0.00
"US1AKAB0006","2007-12-03",,,0.00,0.00,0.00
"US1AKAB0006","2007-12-04",,,0.00,0.00,0.00
"US1AKAB0006","2007-12-05",,,0.00,0.00,0.00
"US1AKAB0006","2007-12-06",,,0.00,0.00,0.00
"US1AKAB0006","2007-12-07",,,5.00,0.00,0.00
"US1AKAB0006","2007-12-08",,,0.00,0.00,0.00
"US1AKAB0006","2007-12-09",,,0.00,0.00,0.00
"US1AKAB0006","2007-12-10",,,0.00,0.00,0.00
"US1AKAB0006","2007-12-11",,,5.00,0.00,0.00
"US1AKAB0006","2007-12-12",,,71.00,76.00,76.00
"US1AKAB0006","2007-12-13",,,0.00,0.00,64.00
"US1AKAB0006","2007-12-14",,,0.00,0.00,51.00
"US1AKAB0006","2007-12-15",,,0.00,0.00,51.00
"US1AKAB0006","2007-12-16",,,0.00,0.00,51.00
"US1AKAB0006","2007-12-17",,,0.00,0.00,51.00
"US1AKAB0006","2007-12-18",,,0.00,0.00,51.00
"US1AKAB0006","2007-12-19",,,0.00,0.00,51.00
"US1AKAB0006","2007-12-20",,,0.00,0.00,51.00
"US1AKAB0006","2007-12-21",,,25.00,46.00,76.00
"US1AKAB0006","2007-12-22",,,0.00,0.00,76.00
"US1AKAB0006","2007-12-23",,,0.00,0.00,76.00
"US1AKAB0006","2008-01-06",,,,,152.00
"US1AKAB0006","2008-01-07",,,0.00,5.00,152.00
"US1AKAB0006","2008-01-08",,,8.00,20.00,165.00
"US1AKAB0006","2008-01-09",,,20.00,20.00,178.00
"US1AKAB0006","2008-01-10",,,69.00,168.00,330.00
"US1AKAB0006","2008-01-11",,,41.00,84.00,343.00
"US1AKAB0006","2008-01-12",,,5.00,15.00,305.00
"US1AKAB0006","2008-01-13",,,0.00,0.00,292.00
"US1AKAB0006","2008-01-14",,,0.00,0.00,279.00
"US1AKAB0006","2008-01-15",,,0.00,3.00,279.00
"US1AKAB0006","2008-01-16",,,66.00,112.00,330.00
"US1AKAB0006","2008-01-17",,,20.00,30.00,343.00
"US1AKAB0006","2008-01-18",,,0.00,0.00,330.00
"US1AKAB0006","2008-01-19",,,0.00,0.00,318.00
"US1AKAB0006","2008-01-20",,,0.00,0.00,305.00
"US1AKAB0006","2008-01-21",,,69.00,25.00,305.00
"US1AKAB0006","2008-01-22",,,0.00,0.00,279.00
"US1AKAB0006","2008-01-23",,,41.00,64.00,330.00
"US1AKAB0006","2008-01-24",,,0.00,0.00,305.00
"US1AKAB0006","2008-01-25",,,48.00,112.00,406.00
"US1AKAB0006","2008-01-26",,,3.00,10.00,381.00
"US1AKAB0006","2008-01-27",,,0.00,0.00,381.00
"US1AKAB0006","2008-01-28",,,3.00,5.00,381.00
"US1AKAB0006","2008-01-29",,,20.00,23.00,381.00
"US1AKAB0006","2008-01-30",,,0.00,8.00,381.00
"US1AKAB0006","2008-01-31",,,0.00,0.00,368.00
"US1AKAB0006","2008-02-01",,,0.00,0.00,368.00
"US1AKAB0006","2008-02-02",,,0.00,0.00,356.00
"US1AKAB0006","2008-02-03",,,0.00,0.00,356.00
"US1AKAB0006","2008-02-04",,,0.00,0.00,356.00
"US1AKAB0006","2008-02-05",,,0.00,0.00,356.00
"US1AKAB0006","2008-02-06",,,0.00,0.00,356.00
"US1AKAB0006","2008-02-07",,,0.00,0.00,356.00
"US1AKAB0006","2008-02-08",,,0.00,0.00,356.00
"US1AKAB0006","2008-02-09",,,0.00,0.00,356.00
"US1AKAB0006","2008-02-10",,,0.00,0.00,356.00
"US1AKAB0006","2008-02-11",,,25.00,71.00,406.00
"US1AKAB0006","2008-02-12",,,46.00,102.00,457.00
"US1AKAB0006","2008-02-13",,,5.00,8.00,457.00
"US1AKAB0006","2008-02-14",,,0.00,0.00,432.00
"US1AKAB0006","2008-02-15",,,33.00,89.00,508.00
"US1AKAB0006","2008-02-16",,,0.00,0.00,483.00
"US1AKAB0006","2008-02-17",,,30.00,48.00,483.00
"US1AKAB0006","2008-02-18",,,5.00,8.00,432.00
"US1AKAB0006","2008-02-19",,,0.00,0.00,381.00
"US1AKAB0006","2008-02-20",,,15.00,0.00,356.00
"US1AKAB0006","2008-02-21",,,0.00,0.00,356.00
"US1AKAB0006","2008-02-22",,,0.00,0.00,356.00
"US1AKAB0006","2008-02-23",,,0.00,0.00,356.00
"US1AKAB0006","2008-02-24",,,0.00,0.00,356.00
"US1AKAB0006","2008-02-25",,,0.00,0.00,356.00
"US1AKAB0006","2008-02-26",,,0.00,0.00,356.00
"US1AKAB0006","2008-02-27",,,0.00,0.00,356.00
"US1AKAB0006","2008-02-28",,,0.00,0.00,356.00
"US1AKAB0006","2008-02-29",,,0.00,0.00,356.00
"US1AKAB0006","2008-03-01",,,0.00,0.00,356.00
"US1AKAB0006","2008-03-02",,,0.00,0.00,356.00
"US1AKAB0006","2008-03-03",,,0.00,0.00,356.00
"US1AKAB0006","2008-03-04",,,0.00,0.00,356.00
"US1AKAB0006","2008-03-05",,,0.00,0.00,305.00
"US1AKAB0006","2008-03-06",,,46.00,0.00,305.00
"US1AKAB0006","2008-03-07",,,13.00,0.00,279.00
"US1AKAB0006","2008-03-08",,,25.00,0.00,241.00
"US1AKAB0006","2008-03-09",,,0.00,0.00,229.00
"US1AKAB0006","2008-03-10",,,0.00,0.00,229.00
"US1AKAB0006","2008-03-11",,,0.00,0.00,203.00
